Location: Bogis-Bossey
(46.3500°N, 6.1667°E)
Time: 18:35:37
(UTC+00:00)

ATLAS CENTAUR R/B - Pass Details

Date: 17 August 2022
Orbit: 444 x 683 km, 64.6° (Epoch: 31 August)

Event Time Altitude Azimuth Distance (km) Brightness Sun altitude
Rises 23:19:28 0° 325° (NW) 3,021 5.9 -30.3°
Reaches altitude 10° 23:21:54 10° 329° (NNW) 2,081 5.0 -30.3°
Enters shadow 23:25:10 40° 352° (N) 954 2.9 -30.4°
